When you browse on this site, cookies collect data to enhance your experience and personalize the content and advertising you see.
Visit our Privacy Policy to learn more. By continuing to use the site, you agree to this use of cookies and data.
  • In Spain
  • List of Countries
  • For 7 days
  • Water Temperature
  • Satellite Maps
  • Weather Map
  • Weather Widgets
  • user-avatar
    Login

    Hourly Weather Bandar Abbas

    Today, 22 January, Tuesday

    Time Temperature Precipitation Wind Pressure Humidity
    00:00 +19°C° 0 mm 1 mps 761 mmHg 41%
    01:00 +18°C° 0 mm 1 mps 761 mmHg 43%
    02:00 +18°C° 0 mm 1 mps 761 mmHg 43%
    03:00 +18°C° 0 mm 1 mps 761 mmHg 43%
    04:00 +18°C° 0 mm 1 mps 761 mmHg 41%
    05:00 +16°C° 0 mm 1 mps 761 mmHg 39%
    06:00 +16°C° 0 mm 2 mps 761 mmHg 37%
    07:00 +16°C° 0 mm 2 mps 761 mmHg 35%
    08:00 +17°C° 0 mm 2 mps 761 mmHg 31%
    09:00 +19°C° 0 mm 2 mps 761 mmHg 27%
    10:00 +20°C° 0 mm 2 mps 762 mmHg 20%
    11:00 +20°C° 0 mm 2 mps 761 mmHg 21%
    12:00 +22°C° 0 mm 1 mps 761 mmHg 21%
    13:00 +23°C° 0 mm 1 mps 761 mmHg 22%
    14:00 +23°C° 0 mm 1 mps 760 mmHg 24%
    15:00 +23°C° 0 mm 2 mps 760 mmHg 26%
    16:00 +23°C° 0 mm 2 mps 760 mmHg 28%
    17:00 +23°C° 0 mm 2 mps 760 mmHg 33%
    18:00 +21°C° 0 mm 2 mps 760 mmHg 38%
    19:00 +21°C° 0 mm 2 mps 760 mmHg 43%
    20:00 +20°C° 0 mm 2 mps 760 mmHg 46%
    21:00 +21°C° 0 mm 1 mps 761 mmHg 49%
    22:00 +20°C° 0 mm 1 mps 761 mmHg 52%
    23:00 +20°C° 0 mm 1 mps 761 mmHg 52%

    Tomorrow, 23 January, Wednesday

    Time Temperature Precipitation Wind Pressure Humidity
    00:00 +20°C° 0 mm 1 mps 761 mmHg 52%
    01:00 +19°C° 0 mm 1 mps 761 mmHg 52%
    02:00 +19°C° 0 mm 1 mps 761 mmHg 52%
    03:00 +18°C° 0 mm 2 mps 761 mmHg 53%
    04:00 +17°C° 0 mm 2 mps 761 mmHg 54%
    05:00 +17°C° 0 mm 2 mps 761 mmHg 54%
    06:00 +17°C° 0 mm 2 mps 761 mmHg 55%
    07:00 +17°C° 0 mm 3 mps 761 mmHg 55%
    08:00 +18°C° 0 mm 3 mps 762 mmHg 51%
    09:00 +19°C° 0 mm 3 mps 762 mmHg 47%
    10:00 +20°C° 0 mm 3 mps 763 mmHg 42%
    11:00 +21°C° 0 mm 2 mps 762 mmHg 41%
    12:00 +23°C° 0 mm 2 mps 762 mmHg 39%
    13:00 +23°C° 0 mm 1 mps 761 mmHg 38%
    14:00 +23°C° 0 mm 2 mps 761 mmHg 39%
    15:00 +24°C° 0 mm 2 mps 761 mmHg 40%
    16:00 +24°C° 0 mm 2 mps 760 mmHg 40%
    17:00 +23°C° 0 mm 2 mps 761 mmHg 44%
    18:00 +23°C° 0 mm 2 mps 761 mmHg 48%
    19:00 +21°C° 0 mm 2 mps 762 mmHg 52%
    20:00 +22°C° 0 mm 1 mps 762 mmHg 55%
    21:00 +21°C° 0 mm 1 mps 763 mmHg 58%
    22:00 +21°C° 0 mm 1 mps 763 mmHg 61%
    23:00 +20°C° 0 mm 1 mps 763 mmHg 62%

    Day after tomorrow, 24 January, Thursday

    Time Temperature Precipitation Wind Pressure Humidity
    00:00 +20°C° 0 mm 1 mps 763 mmHg 63%
    01:00 +20°C° 0 mm 1 mps 763 mmHg 65%
    02:00 +20°C° 0 mm 1 mps 763 mmHg 65%
    03:00 +18°C° 0 mm 2 mps 763 mmHg 65%
    04:00 +18°C° 0 mm 2 mps 763 mmHg 65%
    05:00 +18°C° 0 mm 2 mps 763 mmHg 65%
    06:00 +18°C° 0 mm 2 mps 764 mmHg 65%
    07:00 +17°C° 0 mm 2 mps 764 mmHg 65%
    08:00 +19°C° 0 mm 2 mps 765 mmHg 58%
    09:00 +20°C° 0 mm 2 mps 765 mmHg 51%
    10:00 +21°C° 0 mm 2 mps 766 mmHg 44%
    11:00 +23°C° 0 mm 2 mps 765 mmHg 40%
    12:00 +24°C° 0 mm 2 mps 764 mmHg 35%
    13:00 +25°C° 0 mm 2 mps 764 mmHg 31%
    14:00 +25°C° 0 mm 2 mps 764 mmHg 30%
    15:00 +25°C° 0 mm 2 mps 763 mmHg 29%
    16:00 +25°C° 0 mm 2 mps 763 mmHg 28%
    17:00 +24°C° 0 mm 1 mps 763 mmHg 31%
    18:00 +24°C° 0 mm 1 mps 763 mmHg 35%
    19:00 +21°C° 0 mm 0 mps 764 mmHg 38%
    20:00 +20°C° 0 mm 0 mps 764 mmHg 40%
    21:00 +20°C° 0 mm 0 mps 764 mmHg 41%
    22:00 +19°C° 0 mm 0 mps 764 mmHg 42%
    23:00 +19°C° 0 mm 0 mps 764 mmHg 43%

    25 January, Friday

    Time Temperature Precipitation Wind Pressure Humidity
    00:00 +18°C° 0 mm 0 mps 764 mmHg 44%
    01:00 +18°C° 0 mm 0 mps 764 mmHg 45%
    02:00 +18°C° 0 mm 0 mps 764 mmHg 45%
    03:00 +19°C° 0 mm 1 mps 764 mmHg 46%
    04:00 +19°C° 0 mm 1 mps 764 mmHg 46%
    05:00 +19°C° 0 mm 1 mps 764 mmHg 46%
    06:00 +19°C° 0 mm 1 mps 764 mmHg 46%
    07:00 +18°C° 0 mm 1 mps 764 mmHg 46%
    08:00 +20°C° 0 mm 1 mps 764 mmHg 41%
    09:00 +21°C° 0 mm 2 mps 765 mmHg 37%
    10:00 +23°C° 0 mm 2 mps 765 mmHg 32%
    11:00 +24°C° 0 mm 2 mps 764 mmHg 32%
    12:00 +24°C° 0 mm 2 mps 764 mmHg 31%
    13:00 +25°C° 0 mm 2 mps 763 mmHg 31%
    14:00 +25°C° 0 mm 2 mps 763 mmHg 32%
    15:00 +25°C° 0 mm 2 mps 762 mmHg 34%
    16:00 +25°C° 0 mm 2 mps 762 mmHg 35%
    17:00 +24°C° 0 mm 2 mps 762 mmHg 42%
    18:00 +24°C° 0 mm 2 mps 763 mmHg 48%
    19:00 +23°C° 0 mm 2 mps 763 mmHg 55%
    20:00 +22°C° 0 mm 1 mps 763 mmHg 60%
    21:00 +22°C° 0 mm 1 mps 764 mmHg 65%
    22:00 +22°C° 0 mm 1 mps 764 mmHg 71%
    23:00 +21°C° 0 mm 1 mps 764 mmHg 71%

    26 January, Saturday

    Time Temperature Precipitation Wind Pressure Humidity
    00:00 +21°C° 0 mm 1 mps 764 mmHg 72%
    01:00 +21°C° 0 mm 1 mps 764 mmHg 73%
    02:00 +20°C° 0 mm 2 mps 764 mmHg 73%
    03:00 +19°C° 0 mm 2 mps 764 mmHg 73%
    04:00 +19°C° 0 mm 2 mps 763 mmHg 73%
    05:00 +19°C° 0 mm 2 mps 764 mmHg 74%
    06:00 +19°C° 0 mm 2 mps 764 mmHg 75%
    07:00 +19°C° 0 mm 2 mps 764 mmHg 76%
    08:00 +20°C° 0 mm 2 mps 765 mmHg 74%
    09:00 +21°C° 0 mm 2 mps 765 mmHg 71%
    10:00 +23°C° 0 mm 2 mps 766 mmHg 69%
    11:00 +23°C° 0 mm 2 mps 765 mmHg 66%
    12:00 +24°C° 0 mm 2 mps 765 mmHg 64%
    13:00 +25°C° 0 mm 2 mps 764 mmHg 61%
    14:00 +25°C° 0 mm 2 mps 764 mmHg 61%
    15:00 +25°C° 0 mm 2 mps 763 mmHg 61%
    16:00 +25°C° 0 mm 2 mps 763 mmHg 61%
    17:00 +25°C° 0 mm 2 mps 763 mmHg 65%
    18:00 +24°C° 0 mm 2 mps 763 mmHg 69%
    19:00 +24°C° 0 mm 2 mps 764 mmHg 72%
    20:00 +23°C° 0 mm 1 mps 764 mmHg 75%
    21:00 +23°C° 0 mm 1 mps 765 mmHg 78%
    22:00 +23°C° 0 mm 1 mps 765 mmHg 80%
    23:00 +22°C° 0 mm 1 mps 765 mmHg 83%

    27 January, Sunday

    Time Temperature Precipitation Wind Pressure Humidity
    00:00 +22°C° 0 mm 1 mps 765 mmHg 85%
    01:00 +21°C° 0 mm 2 mps 765 mmHg 87%
    02:00 +21°C° 0 mm 2 mps 765 mmHg 88%
    03:00 +20°C° 0 mm 2 mps 765 mmHg 88%
    04:00 +20°C° 0 mm 2 mps 765 mmHg 89%
    05:00 +20°C° 0 mm 2 mps 765 mmHg 90%
    06:00 +20°C° 0 mm 2 mps 765 mmHg 91%
    07:00 +19°C° 0 mm 2 mps 766 mmHg 92%
    08:00 +20°C° 0 mm 2 mps 766 mmHg 87%
    09:00 +21°C° 0 mm 2 mps 767 mmHg 81%
    10:00 +23°C° 0 mm 2 mps 767 mmHg 76%
    11:00 +24°C° 0 mm 2 mps 767 mmHg 71%
    12:00 +25°C° 0 mm 3 mps 766 mmHg 67%
    13:00 +25°C° 0 mm 3 mps 765 mmHg 62%
    14:00 +25°C° 0 mm 3 mps 765 mmHg 63%
    15:00 +25°C° 0 mm 3 mps 765 mmHg 64%
    16:00 +25°C° 0 mm 3 mps 764 mmHg 64%
    17:00 +25°C° 0 mm 3 mps 765 mmHg 67%
    18:00 +24°C° 0 mm 2 mps 765 mmHg 70%
    19:00 +24°C° 0 mm 1 mps 765 mmHg 73%
    20:00 +24°C° 0 mm 1 mps 766 mmHg 74%
    21:00 +24°C° 0 mm 2 mps 766 mmHg 76%
    22:00 +23°C° 0 mm 2 mps 766 mmHg 78%
    23:00 +23°C° 0 mm 2 mps 766 mmHg 79%
    Show more